Zurück zum Katalog

STARLINK-3737

AktivKommunikationVLEO
NORAD 52114·PAYLOAD·🇺🇸 United States

Gestartet Mar 19, 2022 von Cape Canaveral Space Force Station

Loading…

Nächste Überflüge (nächste 24 Stunden)

TLE

AktuellSource: CelesTrak SupGP

Epoche: Sep 15, 2026, 02:27 UTC

1 52114C 22029AC  26258.10256944  .00025290  00000+0  74709-3 0  2587
2 52114  53.1584 294.5930 0001213  94.8646 243.4131 15.34383147    15

Verfolge STARLINK-3737 in Echtzeit mit AllMySat

Download on the App Store